Volver al catálogo

STARLINK-31500

ActivoComunicacionesVLEO
NORAD 59305·PAYLOAD·🇺🇸 United States

Lanzado Mar 24, 2024 desde Cape Canaveral Space Force Station

Loading…

Próximos Pases (próximas 24 horas)

TLE

ActualizadoSource: CelesTrak SupGP

Época: Sep 14, 2026, 13:44 UTC

1 59305C 24056K   26257.57270833 -.00014840  00000+0 -53763-3 0  2578
2 59305  42.9995 244.0583 0001394 271.5829 346.4117 15.27578851    15

Sigue STARLINK-31500 en tiempo real con AllMySat

Download on the App Store